This is the latest recevied weather packets stored in our database for station/object UA1CAS-13. If no packets are shown the sender has not sent any weather packets the latest 10 day(s).
| Time | Temp. | Humidity | Pressure | Rain* | Wind** | Luminosity | Snow |
|---|---|---|---|---|---|---|---|
| 1778032013 | 6.11° C | 90% | 1005 hPa | - | - | - | - |
| 1778031112 | 6.11° C | 90% | 1005 hPa | - | - | - | - |
| 1778030211 | 6.11° C | 90% | 1004 hPa | - | - | - | - |
| 1778029310 | 6.11° C | 90% | 1004 hPa | - | - | - | - |
| 1778028409 | 6.11° C | 89% | 1004 hPa | - | - | - | - |
| 1778027508 | 6.67° C | 88% | 1004 hPa | - | - | - | - |
| 1778026607 | 6.67° C | 87% | 1004 hPa | - | - | - | - |
| 1778025706 | 6.67° C | 87% | 1004 hPa | - | - | - | - |
| 1778024805 | 6.67° C | 87% | 1004 hPa | - | - | - | - |
| 1778023904 | 6.67° C | 87% | 1004 hPa | - | - | - | - |
| 1778023003 | 6.11° C | 87% | 1004 hPa | - | - | - | - |
| 1778022101 | 6.11° C | 87% | 1004 hPa | - | - | - | - |
| 1778021200 | 6.11° C | 88% | 1003 hPa | - | - | - | - |
| 1778020299 | 5.56° C | 88% | 1003 hPa | - | - | - | - |
| 1778019398 | 5.56° C | 88% | 1003 hPa | - | - | - | - |
| 1778018496 | 5.56° C | 86% | 1003 hPa | - | - | - | - |
| 1778017595 | 5° C | 86% | 1003 hPa | - | - | - | - |
| 1778016694 | 5.56° C | 83% | 1003 hPa | - | - | - | - |
| 1778015793 | 5.56° C | 82% | 1003 hPa | - | - | - | - |
| 1778014892 | 6.11° C | 82% | 1003 hPa | - | - | - | - |
| 1778013991 | 6.11° C | 79% | 1003 hPa | - | - | - | - |
| 1778013090 | 5.56° C | 75% | 1003 hPa | - | - | - | - |
| 1778012189 | 6.11° C | 72% | 1003 hPa | - | - | - | - |
| 1778011288 | 7.22° C | 71% | 1003 hPa | - | - | - | - |
| 1778010387 | 7.78° C | 69% | 1003 hPa | - | - | - | - |
* Rain since midnight (hover to see other rain measurements)
** Current wind speed in m/s (hover to see current wind gust speed)